Regional Weather Roundup
Issued by NWS

Home | Current Version | Previous Version | Graphics & Text | Print | Product List | Glossary On
Versions: 1 2 3 4 5 6 7 8 9 10 11 12 13 14 15 16 17 18 19 20 21 22 23 24 25 26 27 28 29 30 31 32 33 34 35 36 37 38 39 40 41 42 43 44 45 46 47 48 49 50
014
ASUS43 KOAX 181110
RWRNE

WEATHER ROUNDUP FOR NEBRASKA
NATIONAL WEATHER SERVICE OMAHA NE
500 AM CST MON DEC 18 2017

NOTES: SATELLITE DATA IS BEING USED TO AUGMENT CLOUD COVER ABOVE
       12000 FEET.
       "FAIR" INDICATES FEW OR NO CLOUDS BELOW 12,000 FEET WITH NO
       SIGNIFICANT WEATHER AND/OR OBSTRUCTIONS TO VISIBILITY.


NEZ001>004-019>022-054>056-181200-
NEBRASKA PANHANDLE

CITY           SKY/WX    TMP DP  RH WIND       PRES   REMARKS
SCOTTSBLUFF    CLOUDY    18  11  74 E5        29.92S WCI  11
ALLIANCE       CLOUDY    11   8  88 W7        29.90S WCI   0
CHADRON        CLOUDY    16  13  88 W3        29.87F
GORDON         FAIR      28  19  69 CALM      29.85F
KIMBALL        CLOUDY    20  18  91 W10       29.94S WCI   9
SIDNEY         CLOUDY    18  15  88 W9        29.94F WCI   7
$$

NEZ057>060-069>072-079>082-181200-
SOUTHWEST NEBRASKA

CITY           SKY/WX    TMP DP  RH WIND       PRES   REMARKS
NORTH PLATTE   CLOUDY    20  17  88 NW3       29.95S
IMPERIAL       CLEAR     22  19  89 W9        29.97S WCI  12
LEXINGTON      CLOUDY    22  19  89 CALM      29.96R
MCCOOK         CLOUDY    21  19  92 SW10      29.99S WCI  10
OGALLALA       CLOUDY    22  19  88 W3        29.96S
$$

NEZ005>010-023>029-035>040-094-181200-
NORTH CENTRAL NEBRASKA

CITY           SKY/WX    TMP DP  RH WIND       PRES   REMARKS
VALENTINE      CLOUDY    24  20  84 SW8       29.86S WCI  15
AINSWORTH      CLOUDY    28  23  84 W7        29.86S WCI  20
BROKEN BOW     CLEAR     30  21  69 W12       29.90F WCI  20
O`NEILL        CLOUDY    30  27  88 W12       29.86R WCI  21
ORD            CLEAR     29  23  78 W6        29.90R WCI  23
THEDFORD       CLOUDY    29  20  70 W7        29.89F WCI  22
$$

NEZ041-046>049-061>064-073>077-083>087-181200-
SOUTH CENTRAL NEBRASKA

CITY           SKY/WX    TMP DP  RH WIND       PRES   REMARKS
GRAND ISLAND   CLEAR     29  26  89 W13       29.93R WCI  19
AURORA         CLEAR     29  26  90 SW12      29.93R WCI  19
HASTINGS       CLEAR     29  24  82 SW9       29.95R WCI  20
HEBRON         CLOUDY    31  28  88 SW9       29.99S WCI  23
HOLDREGE       CLOUDY    27  24  91 W10       29.96R WCI  17
KEARNEY        CLEAR     28  25  88 W9        29.96R WCI  19
YORK           CLEAR     27  27 100 SW12      29.94R WCI  16
$$

NEZ011>018-030>034-042>045-181200-
NORTHEAST NEBRASKA

CITY           SKY/WX    TMP DP  RH WIND       PRES   REMARKS
NORFOLK        CLEAR     29  26  89 W7        29.86S WCI  22
ALBION         CLEAR     32  27  80 NW7       29.88S WCI  26
BLAIR          CLOUDY    28  27  94 S10       29.93S FOG     WCI  19
COLUMBUS       CLEAR     28  27  96 SW14      29.91S WCI  17
FREMONT        CLOUDY    28  26  95 S7        29.91F WCI  20
TEKAMAH        CLOUDY    21  18  88 SE10      29.91F FOG     WCI  10
WAYNE          CLEAR     24  23  96 S8        29.85F WCI  15
$$

NEZ050>053-065>068-078-088>093-181200-
SOUTHEAST NEBRASKA

CITY           SKY/WX    TMP DP  RH WIND       PRES   REMARKS
LINCOLN        CLEAR     25  23  92 S6        29.96F WCI  18
OMAHA EPPLEY   CLOUDY    25  21  85 SE10      29.96S FOG     WCI  15
BEATRICE       CLEAR     29  27  95 S8        29.99F WCI  21
FALLS CITY     CLEAR     32  31  96 SW3       30.00S FOG
NEBRASKA CITY  CLEAR     28  28 100 SW10      29.97F WCI  19
PLATTSMOUTH    MOCLDY    25  25  99 S5        29.96R FOG     WCI  19
$$

NEZ044-045-051>053-067-181200-
OMAHA AREA

CITY           SKY/WX    TMP DP  RH WIND       PRES   REMARKS
OMAHA EPPLEY   CLOUDY    25  21  85 SE10      29.96S FOG     WCI  15
BLAIR          CLOUDY    28  27  94 S10       29.93S FOG     WCI  19
FREMONT        CLOUDY    28  26  95 S7        29.91F WCI  20
MILLARD        CLOUDY    26  25  95 CALM      29.96S FOG
OFFUTT AFB     FOG       22  20  92 CALM      29.96S VSB 1/2
PLATTSMOUTH    MOCLDY    25  25  99 S5        29.96R FOG     WCI  19
WAHOO          FAIR      23  22  93 S9        29.93F WCI  13
$$




USA.gov is the U.S. government's official web portal to all federal, state and local government web resources and services.